Weather past 2 weeks in Jamestown, Saint Helena

Now
60 °F

Cool.


Feels Like: 57 °F
Forecast: N/A
Wind: 15 mph from Southeast

Location: Saint Helena Island

Current Time: Oct 23, 2014 at 7:40:59 PM

Latest Report: Oct 23, 2014 at 7:00 PM


Visibility: N/A

Pressure: 30.06 "Hg

Humidity: 99%

Dew point: 60 °F

Location of JamestownLocation

Historic Weather in Jamestown — Graph

°F

Jamestown temperature yesterday

Maximum temperature yesterday: 64 °F (at 3:00 PM)
Minimum temperature yesterday: 59 °F (at 11:00 PM)
Average temperature yesterday: 61 °F

Past Weeks' High & Low Weather Summary

 TemperatureHumidityPressure
High65 °F (Oct 13, 1:00 PM)100% (Oct 9, 4:00 PM)30.20 "Hg (Oct 9, 4:00 PM)
Low56 °F (Oct 15, 5:00 AM)64% (Oct 20, 11:00 AM)30.02 "Hg (Oct 21, 4:00 AM)
Average60 °F85%30.11 "Hg
* Reported Oct 8 6:00 PM — Oct 23 6:00 PM, Jamestown, Weather by CustomWeather, © 2014

Note: Actual official high and low records may vary slightly from our data, if they occured in-between our weather recording intervals... More about our weather records

Advertising

Jamestown weather history for previous 24 hours

 ConditionsComfort  
Time TempWeatherWind HumidityBarometerVisibility
6:00 PM
Oct 23
60 °FCool.16 mph98%30.04 "HgN/A
4:00 PM62 °FCool.17 mph89%30.03 "HgN/A
3:00 PM63 °FLow clouds.17 mph84%30.03 "Hg2 mi
1:00 PM63 °FMild.17 mph85%30.08 "HgN/A
12:00 PM63 °FLow clouds.16 mph79%30.10 "Hg2 mi
11:00 AM62 °FLow clouds.14 mph84%30.12 "Hg2 mi
10:00 AM62 °FCool.17 mph83%30.13 "HgN/A
9:00 AM61 °FLow clouds.16 mph83%30.13 "Hg2 mi
8:00 AM60 °FCool.17 mph84%30.11 "HgN/A
7:00 AM60 °FCool.15 mph86%30.10 "HgN/A
5:00 AM60 °FCool.14 mph87%30.09 "HgN/A
4:00 AM60 °FCool.15 mph88%30.07 "HgN/A
3:00 AM60 °FCool.14 mph91%30.07 "HgN/A
1:00 AM60 °FCool.17 mph86%30.11 "HgN/A
11:00 PM
Oct 22
59 °FCool.15 mph90%30.14 "HgN/A
10:00 PM60 °FCool.16 mph88%30.14 "HgN/A
9:00 PM60 °FCool.12 mph90%30.13 "HgN/A
8:00 PM60 °FCool.15 mph89%30.12 "HgN/A
7:00 PM60 °FCool.12 mph87%30.10 "HgN/A
Weather by CustomWeather, © 2014

See weather overviewHow to use our weather pages